Weather History for Springfield, VT

Change the Weather History Date:

Sunday, November 2, 2014

  Actual Average Record
Temperature  
Mean Temperature 39 °F 42 °F  
Max Temperature 42 °F 52 °F 70 °F (2001)
Min Temperature 35 °F 32 °F 21 °F (2008)
Degree Days  
Heating Degree Days 26 23  
Month to date heating degree days 54 46  
Since 1 July heating degree days 710 855  
Cooling Degree Days 0 0  
Month to date cooling degree days 0 0  
Year to date cooling degree days 282 345  
Moisture  
Dew Point 22 °F    
Average Humidity 56    
Maximum Humidity 76    
Minimum Humidity 35    
Precipitation  
Precipitation 0.00 in 0.13 in 0.73 in (1999)
Month to date precipitation 0.02 0.26  
Year to date precipitation 33.83 36.81  
Sea Level Pressure  
Sea Level Pressure 29.90 in    
Wind  
Wind Speed 11 mph (NNW)    
Max Wind Speed 24 mph    
Max Gust Speed 35 mph    
Visibility 10 miles    
Events      
T = Trace of Precipitation, MM = Missing Value Source: NWS Daily Summary

Daily Weather History Graph

Daily Weather History Graph

Search for Another Location

Airport:

Trip Planner

Search our weather history database for the weather conditions in past years. The results will help you decide how hot, cold, wet, or windy it might be!

Date:

Astronomy

Nov. 02, 2014 Rise Set
Actual Time 6:26 AM EST 4:40 PM EST
Civil Twilight 5:56 AM EST 5:09 PM EST
Nautical Twilight 5:22 AM EST 5:43 PM EST
Astronomical Twilight 4:49 AM EST 6:16 PM EST
Moon 2:17 PM EST (11/2) 1:17 AM EST (11/2)
Length of Visible Light 11h 13m
Length of Day
10h 13m
Waxing Gibbous, 78% of the Moon is Illuminated
Nov 2
Waxing Gibbous
Nov 6
Full
Nov 14
Last Quarter
Nov 22
New
Nov 29
First Quarter

Hourly Weather History & Observations

Time (EST) Temp. Windchill Dew Point Humidity Pressure Visibility Wind Dir Wind Speed Gust Speed Precip Events Conditions
12:54 AM 37.0 °F 32.4 °F 30.9 °F 79% 29.96 in 10.0 mi Variable 5.8 mph - N/A   Overcast
1:17 AM 37.0 °F 31.0 °F 30.0 °F 76% 29.92 in 10.0 mi North 8.1 mph - N/A   Overcast
1:44 AM 36.0 °F 29.6 °F 28.9 °F 76% 29.91 in 10.0 mi NNE 8.1 mph - N/A   Mostly Cloudy
1:54 AM 36.0 °F 28.0 °F 28.9 °F 76% 29.93 in 10.0 mi North 11.5 mph 18.4 mph N/A   Overcast
1:19 AM 36.0 °F 30.3 °F 30.0 °F 79% 29.91 in 10.0 mi North 6.9 mph - N/A   Overcast
1:54 AM 37.0 °F 31.6 °F 28.9 °F 73% 29.92 in 10.0 mi Variable 6.9 mph - N/A   Overcast
2:54 AM 36.0 °F - 28.0 °F 73% 29.90 in 10.0 mi North - - N/A   Mostly Cloudy
3:54 AM 36.0 °F 30.3 °F 26.1 °F 67% 29.91 in 10.0 mi North 6.9 mph 21.9 mph N/A   Overcast
4:17 AM 35.1 °F 26.4 °F 25.0 °F 67% 29.91 in 10.0 mi North 12.7 mph 23.0 mph N/A   Overcast
4:54 AM 35.1 °F 26.4 °F 24.1 °F 64% 29.92 in 10.0 mi North 12.7 mph 19.6 mph N/A   Scattered Clouds
5:54 AM 35.1 °F 25.9 °F 24.1 °F 64% 29.88 in 10.0 mi North 13.8 mph 24.2 mph N/A   Mostly Cloudy
2:54 PM 41.0 °F 35.2 °F 18.0 °F 40% 29.82 in 10.0 mi NW 9.2 mph 21.9 mph N/A   Clear
3:54 PM 41.0 °F 31.9 °F 17.1 °F 38% 29.84 in 10.0 mi NW 19.6 mph 29.9 mph N/A   Clear
4:54 PM 39.0 °F 30.6 °F 16.0 °F 39% 29.85 in 10.0 mi NW 15.0 mph 31.1 mph N/A   Clear
5:54 PM 39.0 °F 31.8 °F 17.1 °F 41% 29.88 in 10.0 mi NW 11.5 mph 24.2 mph N/A   Clear
6:54 PM 37.9 °F 30.5 °F 14.0 °F 38% 29.89 in 10.0 mi NW 11.5 mph 25.3 mph N/A   Clear
7:54 PM 37.9 °F 30.0 °F 12.0 °F 35% 29.89 in 10.0 mi NW 12.7 mph 24.2 mph N/A   Clear
8:54 PM 37.0 °F 29.3 °F 12.0 °F 36% 29.90 in 10.0 mi NNW 11.5 mph 31.1 mph N/A   Clear
9:54 PM 36.0 °F 29.0 °F 12.9 °F 39% 29.88 in 10.0 mi NNW 9.2 mph 25.3 mph N/A   Clear
10:54 PM 35.1 °F - 12.9 °F 40% 29.88 in 10.0 mi North - - N/A   Clear